| time (UTC) | temp F | wind direction | speed MPH | gust MPH | rain 1hr in | rain 24hr in | rain mn in | humidity % | barometer mb |
| 20260903001201 | 60 | 207 | 0.0 | 0.0 | 0.00 | 0.17 | 0.17 | 94 | 1009.1 |
| 20260903000656 | 60 | 227 | 0.0 | 0.0 | 0.00 | 0.17 | 0.17 | 94 | 1009.0 |
| 20260903000155 | 60 | 199 | 0.0 | 0.0 | 0.00 | 0.17 | 0.17 | 93 | 1009.1 |
| 20260902235649 | 60 | 188 | 0.0 | 0.0 | 0.00 | 0.17 | 0.17 | 93 | 1009.2 |
| 20260902235144 | 59 | 179 | 0.0 | 0.0 | 0.00 | 0.17 | 0.17 | 93 | 1008.7 |
| 20260902234644 | 60 | 156 | 0.0 | 0.0 | 0.00 | 0.17 | 0.17 | 93 | 1009.2 |
| 20260902234143 | 59 | 192 | 0.0 | 0.0 | 0.00 | 0.17 | 0.17 | 93 | 1009.1 |
| 20260902233638 | 60 | 178 | 0.0 | 0.0 | 0.00 | 0.17 | 0.17 | 93 | 1009.2 |
| 20260902233137 | 59 | 198 | 0.0 | 0.0 | 0.00 | 0.17 | 0.17 | 92 | 1009.3 |
| 20260902232637 | 59 | 194 | 0.0 | 0.0 | 0.00 | 0.17 | 0.17 | 92 | 1009.3 |
| 20260902232136 | 59 | 209 | 0.0 | 0.0 | 0.00 | 0.17 | 0.17 | 92 | 1009.0 |
| 20260902231636 | 60 | 219 | 0.0 | 0.0 | 0.00 | 0.17 | 0.17 | 91 | 1009.0 |
| 20260902231130 | 59 | 196 | 0.0 | 0.0 | 0.00 | 0.17 | 0.17 | 91 | 1009.0 |
| 20260902230626 | 59 | 164 | 0.0 | 0.0 | 0.00 | 0.17 | 0.17 | 90 | 1009.1 |
| 20260902230125 | 59 | 185 | 0.0 | 0.0 | 0.07 | 0.17 | 0.17 | 90 | 1009.1 |
| 20260902225620 | 60 | 142 | 0.0 | 0.0 | 0.07 | 0.17 | 0.17 | 89 | 1009.4 |
| 20260902225119 | 60 | 168 | 0.0 | 0.0 | 0.07 | 0.15 | 0.15 | 89 | 1009.4 |
| 20260902224618 | 60 | 33 | 0.0 | 0.0 | 0.14 | 0.15 | 0.15 | 88 | 1009.3 |
| 20260902224114 | 60 | 188 | 0.0 | 0.0 | 0.14 | 0.14 | 0.14 | 88 | 1009.5 |
| 20260902223611 | 60 | 168 | 0.0 | 0.0 | 0.07 | 0.13 | 0.13 | 88 | 1009.4 |
| 20260902223109 | 60 | 166 | 0.0 | 0.0 | 0.00 | 0.12 | 0.12 | 87 | 1009.5 |
| 20260902222608 | 60 | 199 | 0.0 | 0.0 | 0.07 | 0.12 | 0.12 | 88 | 1009.2 |
| 20260902222107 | 60 | 159 | 0.0 | 0.0 | 0.14 | 0.12 | 0.12 | 87 | 1009.2 |
| 20260902221601 | 60 | 201 | 0.0 | 0.0 | 0.07 | 0.11 | 0.11 | 86 | 1009.4 |
| 20260902221056 | 60 | 205 | 0.0 | 0.0 | 0.07 | 0.09 | 0.09 | 86 | 1009.0 |
| 20260902220552 | 60 | 135 | 0.0 | 0.0 | 0.07 | 0.09 | 0.09 | 85 | 1009.2 |
| 20260902220046 | 60 | 183 | 0.0 | 0.0 | 0.07 | 0.08 | 0.08 | 85 | 1009.5 |
| 20260902215543 | 60 | 198 | 0.0 | 0.0 | 0.14 | 0.08 | 0.08 | 84 | 1009.3 |
| 20260902215038 | 60 | 195 | 0.0 | 0.0 | 0.07 | 0.07 | 0.07 | 83 | 1009.5 |
| 20260902214532 | 60 | 157 | 0.0 | 0.0 | 0.00 | 0.06 | 0.06 | 82 | 1009.4 |
| 20260902214031 | 60 | 193 | 0.0 | 0.0 | 0.07 | 0.06 | 0.06 | 81 | 1009.4 |
| 20260902213527 | 61 | 116 | 0.0 | 0.0 | 0.07 | 0.06 | 0.06 | 81 | 1009.4 |
| 20260902213026 | 61 | 233 | 0.0 | 0.0 | 0.00 | 0.05 | 0.05 | 79 | 1009.2 |
| 20260902212522 | 61 | 218 | 0.0 | 0.0 | 0.00 | 0.05 | 0.05 | 78 | 1009.3 |
| 20260902212018 | 61 | 235 | 0.0 | 0.0 | 0.00 | 0.05 | 0.05 | 77 | 1009.2 |
| 20260902211514 | 62 | 204 | 0.0 | 0.0 | 0.07 | 0.05 | 0.05 | 78 | 1009.3 |
| 20260902211009 | 62 | 193 | 0.0 | 0.0 | 0.07 | 0.05 | 0.05 | 76 | 1009.3 |
| 20260902210509 | 63 | 207 | 0.0 | 0.0 | 0.00 | 0.04 | 0.04 | 75 | 1009.2 |
| 20260902210008 | 63 | 217 | 0.0 | 3.0 | 0.07 | 0.04 | 0.04 | 74 | 1009.5 |
| 20260902205502 | 63 | 130 | 0.0 | 0.0 | 0.07 | 0.04 | 0.04 | 73 | 1009.3 |
| 20260902204958 | 63 | 203 | 0.0 | 0.0 | 0.00 | 0.02 | 0.02 | 71 | 1009.3 |
| 20260902204457 | 64 | 214 | 0.0 | 5.0 | 0.00 | 0.02 | 0.02 | 71 | 1009.3 |
| 20260902203953 | 64 | 192 | 0.0 | 0.0 | 0.00 | 0.02 | 0.02 | 69 | 1009.3 |
| 20260902203448 | 65 | 244 | 7.0 | 10.0 | 0.00 | 0.02 | 0.02 | 67 | 1009.4 |
| 20260902202947 | 66 | 208 | 0.0 | 0.0 | 0.00 | 0.02 | 0.02 | 66 | 1009.3 |
| 20260902202443 | 66 | 269 | 0.0 | 0.0 | 0.00 | 0.02 | 0.02 | 65 | 1009.3 |
| 20260902201940 | 66 | 119 | 0.0 | 5.0 | 0.00 | 0.02 | 0.02 | 64 | 1009.4 |
| 20260902201435 | 66 | 204 | 0.0 | 3.0 | 0.00 | 0.02 | 0.02 | 66 | 1009.0 |
| 20260902200934 | 66 | 200 | 0.0 | 5.0 | 0.00 | 0.02 | 0.02 | 66 | 1009.3 |
| 20260902200430 | 66 | 174 | 0.0 | 0.0 | 0.00 | 0.02 | 0.02 | 68 | 1009.3 |
| 20260902195925 | 65 | 121 | 0.0 | 0.0 | 0.00 | 0.02 | 0.02 | 69 | 1009.3 |
| 20260902195420 | 65 | 161 | 0.0 | 3.0 | 0.00 | 0.02 | 0.02 | 69 | 1009.4 |
| 20260902194914 | 65 | 207 | 0.0 | 0.0 | 0.00 | 0.02 | 0.02 | 71 | 1009.6 |
| 20260902194414 | 65 | 147 | 1.0 | 3.0 | 0.00 | 0.02 | 0.02 | 70 | 1009.4 |
| 20260902193909 | 64 | 263 | 0.0 | 0.0 | 0.00 | 0.02 | 0.02 | 73 | 1009.5 |
| 20260902193406 | 63 | 180 | 0.0 | 0.0 | 0.00 | 0.02 | 0.02 | 73 | 1009.5 |
| 20260902192904 | 63 | 289 | 0.0 | 0.0 | 0.00 | 0.02 | 0.02 | 76 | 1009.8 |
| 20260902192403 | 63 | 216 | 0.0 | 3.0 | 0.14 | 0.02 | 0.02 | 75 | 1009.8 |
| 20260902191856 | 65 | 304 | 1.0 | 10.0 | 0.14 | 0.02 | 0.02 | 69 | 1009.8 |
| 20260902191352 | 70 | 178 | 3.0 | 7.0 | 0.00 | 0.00 | 0.00 | 54 | 1010.0 |
| 20260902190847 | 72 | 216 | 0.0 | 0.0 | 0.00 | 0.00 | 0.00 | 51 | 1009.3 |
| 20260902190347 | 72 | 116 | 0.0 | 0.0 | 0.00 | 0.00 | 0.00 | 50 | 1009.4 |
| 20260902185843 | 72 | 99 | 0.0 | 3.0 | 0.00 | 0.00 | 0.00 | 51 | 1009.5 |
| 20260902185338 | 70 | 139 | 0.0 | 5.0 | 0.00 | 0.00 | 0.00 | 54 | 1009.6 |
| 20260902184834 | 69 | 161 | 0.0 | 3.0 | 0.00 | 0.00 | 0.00 | 56 | 1009.6 |
| 20260902184329 | 69 | 122 | 4.0 | 7.0 | 0.00 | 0.00 | 0.00 | 57 | 1009.7 |
| 20260902183825 | 68 | 147 | 0.0 | 3.0 | 0.00 | 0.00 | 0.00 | 59 | 1009.9 |
| 20260902183321 | 68 | 152 | 1.0 | 5.0 | 0.00 | 0.00 | 0.00 | 58 | 1009.7 |
| 20260902182817 | 68 | 70 | 0.0 | 3.0 | 0.00 | 0.00 | 0.00 | 60 | 1009.8 |
| 20260902182313 | 68 | 125 | 0.0 | 0.0 | 0.00 | 0.00 | 0.00 | 61 | 1009.9 |
| 20260902181809 | 67 | 212 | 0.0 | 0.0 | 0.00 | 0.00 | 0.00 | 63 | 1010.0 |
| 20260902181304 | 66 | 152 | 0.0 | 0.0 | 0.00 | 0.00 | 0.00 | 64 | 1010.0 |
| 20260902180758 | 66 | 123 | 0.0 | 0.0 | 0.00 | 0.00 | 0.00 | 65 | 1010.1 |
| 20260902180254 | 66 | 153 | 0.0 | 0.0 | 0.00 | 0.00 | 0.00 | 65 | 1009.9 |
| 20260902175749 | 66 | 150 | 0.0 | 0.0 | 0.00 | 0.00 | 0.00 | 66 | 1010.0 |
| 20260902175245 | 65 | 167 | 0.0 | 0.0 | 0.00 | 0.00 | 0.00 | 66 | 1010.1 |
| 20260902174740 | 65 | 169 | 0.0 | 0.0 | 0.00 | 0.00 | 0.00 | 65 | 1010.2 |
| 20260902174236 | 65 | 146 | 0.0 | 0.0 | 0.00 | 0.00 | 0.00 | 64 | 1010.4 |
| 20260902173732 | 65 | 167 | 0.0 | 0.0 | 0.00 | 0.00 | 0.00 | 66 | 1010.3 |
| 20260902173231 | 65 | 154 | 0.0 | 0.0 | 0.00 | 0.00 | 0.00 | 66 | 1010.4 |
| 20260902172726 | 65 | 161 | 0.0 | 0.0 | 0.00 | 0.00 | 0.00 | 67 | 1010.4 |
| 20260902172226 | 65 | 164 | 0.0 | 0.0 | 0.00 | 0.00 | 0.00 | 66 | 1010.5 |
| 20260902171721 | 65 | 188 | 0.0 | 0.0 | 0.00 | 0.00 | 0.00 | 68 | 1010.5 |
| 20260902171216 | 65 | 163 | 0.0 | 0.0 | 0.00 | 0.00 | 0.00 | 69 | 1010.6 |
| 20260902170712 | 64 | 172 | 0.0 | 0.0 | 0.00 | 0.00 | 0.00 | 69 | 1010.6 |
| 20260902170208 | 64 | 183 | 0.0 | 0.0 | 0.00 | 0.00 | 0.00 | 70 | 1010.5 |
| 20260902165702 | 64 | 157 | 0.0 | 0.0 | 0.00 | 0.00 | 0.00 | 71 | 1010.8 |
| 20260902165156 | 64 | 156 | 0.0 | 0.0 | 0.00 | 0.00 | 0.00 | 72 | 1010.8 |
| 20260902164652 | 64 | 154 | 0.0 | 0.0 | 0.00 | 0.00 | 0.00 | 72 | 1010.8 |
| 20260902164150 | 63 | 154 | 0.0 | 0.0 | 0.00 | 0.00 | 0.00 | 71 | 1010.9 |
| 20260902163646 | 63 | 112 | 0.0 | 0.0 | 0.00 | 0.00 | 0.00 | 73 | 1011.0 |
| 20260902163145 | 63 | 144 | 0.0 | 0.0 | 0.00 | 0.00 | 0.00 | 73 | 1011.0 |
| 20260902162644 | 63 | 137 | 0.0 | 0.0 | 0.00 | 0.00 | 0.00 | 73 | 1011.1 |
| 20260902162138 | 63 | 146 | 0.0 | 0.0 | 0.00 | 0.00 | 0.00 | 72 | 1011.0 |
| 20260902161634 | 63 | 115 | 0.0 | 0.0 | 0.00 | 0.00 | 0.00 | 72 | 1011.0 |
| 20260902161130 | 64 | 131 | 0.0 | 0.0 | 0.00 | 0.00 | 0.00 | 71 | 1011.0 |
| 20260902160626 | 64 | 187 | 0.0 | 0.0 | 0.00 | 0.00 | 0.00 | 71 | 1011.0 |
| 20260902160121 | 63 | 137 | 0.0 | 0.0 | 0.00 | 0.00 | 0.00 | 72 | 1011.1 |
| 20260902155619 | 64 | 160 | 0.0 | 0.0 | 0.00 | 0.00 | 0.00 | 70 | 1011.2 |
| 20260902155118 | 64 | 202 | 0.0 | 0.0 | 0.00 | 0.00 | 0.00 | 73 | 1011.1 |
| 20260902154613 | 63 | 187 | 0.0 | 0.0 | 0.00 | 0.00 | 0.00 | 76 | 1011.2 |
| 20260902154108 | 62 | 209 | 0.0 | 0.0 | 0.00 | 0.00 | 0.00 | 77 | 1011.2 |
| 20260902153607 | 61 | 245 | 0.0 | 0.0 | 0.00 | 0.00 | 0.00 | 78 | 1011.3 |
| 20260902153102 | 61 | 214 | 0.0 | 0.0 | 0.00 | 0.00 | 0.00 | 79 | 1011.3 |
| 20260902152559 | 60 | 262 | 0.0 | 0.0 | 0.00 | 0.00 | 0.00 | 81 | 1011.4 |
| 20260902152054 | 60 | 202 | 0.0 | 0.0 | 0.00 | 0.00 | 0.00 | 82 | 1011.6 |
| 20260902151549 | 59 | 142 | 0.0 | 0.0 | 0.00 | 0.00 | 0.00 | 82 | 1011.8 |
| 20260902151049 | 59 | 167 | 0.0 | 0.0 | 0.00 | 0.00 | 0.00 | 84 | 1011.7 |
| 20260902150544 | 59 | 190 | 0.0 | 0.0 | 0.00 | 0.00 | 0.00 | 87 | 1011.8 |
| 20260902150040 | 58 | 195 | 0.0 | 0.0 | 0.00 | 0.00 | 0.00 | 87 | 1011.9 |
| 20260902145535 | 58 | 185 | 0.0 | 0.0 | 0.00 | 0.00 | 0.00 | 87 | 1011.9 |
| 20260902145034 | 58 | 194 | 0.0 | 0.0 | 0.00 | 0.00 | 0.00 | 88 | 1012.1 |
| 20260902144531 | 57 | 193 | 0.0 | 0.0 | 0.00 | 0.00 | 0.00 | 88 | 1012.0 |
| 20260902144031 | 57 | 152 | 0.0 | 0.0 | 0.00 | 0.00 | 0.00 | 88 | 1012.2 |
| 20260902143526 | 57 | 147 | 0.0 | 0.0 | 0.00 | 0.00 | 0.00 | 88 | 1012.3 |
| 20260902143022 | 57 | 189 | 0.0 | 0.0 | 0.00 | 0.00 | 0.00 | 88 | 1012.2 |
| 20260902142517 | 57 | 190 | 0.0 | 0.0 | 0.00 | 0.00 | 0.00 | 88 | 1012.3 |
| 20260902142013 | 57 | 190 | 0.0 | 0.0 | 0.00 | 0.00 | 0.00 | 88 | 1012.3 |
| 20260902141507 | 57 | 175 | 0.0 | 0.0 | 0.00 | 0.00 | 0.00 | 88 | 1012.3 |
| 20260902141002 | 57 | 160 | 0.0 | 0.0 | 0.00 | 0.00 | 0.00 | 88 | 1012.3 |
| 20260902140457 | 57 | 144 | 0.0 | 0.0 | 0.00 | 0.00 | 0.00 | 89 | 1012.3 |
| 20260902135956 | 57 | 147 | 0.0 | 0.0 | 0.00 | 0.00 | 0.00 | 89 | 1012.1 |
| 20260902135451 | 56 | 201 | 0.0 | 0.0 | 0.00 | 0.00 | 0.00 | 89 | 1012.6 |
| 20260902134946 | 56 | 206 | 0.0 | 0.0 | 0.00 | 0.00 | 0.00 | 89 | 1012.4 |
| 20260902134442 | 56 | 183 | 0.0 | 0.0 | 0.00 | 0.00 | 0.00 | 89 | 1012.6 |
| 20260902133942 | 57 | 144 | 0.0 | 0.0 | 0.00 | 0.00 | 0.00 | 88 | 1012.3 |
| 20260902133437 | 57 | 126 | 0.0 | 0.0 | 0.00 | 0.00 | 0.00 | 88 | 1012.1 |
| 20260902132932 | 56 | 155 | 0.0 | 0.0 | 0.00 | 0.00 | 0.00 | 88 | 1012.5 |
| 20260902132427 | 57 | 142 | 0.0 | 0.0 | 0.00 | 0.00 | 0.00 | 88 | 1012.3 |
| 20260902131921 | 57 | 151 | 0.0 | 0.0 | 0.00 | 0.00 | 0.00 | 88 | 1012.5 |
| 20260902131419 | 57 | 158 | 0.0 | 0.0 | 0.00 | 0.00 | 0.00 | 87 | 1012.4 |
| 20260902130918 | 57 | 181 | 0.0 | 0.0 | 0.00 | 0.00 | 0.00 | 87 | 1012.4 |
| 20260902130414 | 57 | 187 | 0.0 | 0.0 | 0.00 | 0.00 | 0.00 | 87 | 1012.2 |
| 20260902125908 | 57 | 171 | 0.0 | 0.0 | 0.00 | 0.00 | 0.00 | 87 | 1012.5 |
| 20260902125405 | 57 | 165 | 0.0 | 0.0 | 0.00 | 0.00 | 0.00 | 86 | 1012.7 |
| 20260902124900 | 57 | 138 | 0.0 | 0.0 | 0.00 | 0.00 | 0.00 | 86 | 1012.6 |
| 20260902124356 | 57 | 155 | 0.0 | 0.0 | 0.00 | 0.00 | 0.00 | 86 | 1012.7 |
| 20260902123851 | 57 | 137 | 0.0 | 0.0 | 0.00 | 0.00 | 0.00 | 86 | 1012.5 |
| 20260902123347 | 57 | 181 | 0.0 | 0.0 | 0.00 | 0.00 | 0.00 | 86 | 1012.6 |
| 20260902122846 | 57 | 163 | 0.0 | 0.0 | 0.00 | 0.00 | 0.00 | 85 | 1012.6 |
| 20260902122342 | 57 | 197 | 0.0 | 0.0 | 0.00 | 0.00 | 0.00 | 85 | 1012.7 |
| 20260902121841 | 58 | 198 | 0.0 | 0.0 | 0.00 | 0.00 | 0.00 | 85 | 1012.5 |
| 20260902121337 | 58 | 189 | 0.0 | 0.0 | 0.00 | 0.00 | 0.00 | 85 | 1012.7 |
| 20260902120832 | 58 | 132 | 0.0 | 0.0 | 0.00 | 0.00 | 0.00 | 85 | 1012.8 |
| 20260902120328 | 58 | 155 | 0.0 | 0.0 | 0.00 | 0.00 | 0.00 | 85 | 1012.9 |
| 20260902115823 | 58 | 131 | 0.0 | 0.0 | 0.00 | 0.00 | 0.00 | 85 | 1012.9 |
| 20260902115319 | 58 | 135 | 0.0 | 0.0 | 0.00 | 0.00 | 0.00 | 85 | 1013.0 |
| 20260902114815 | 58 | 192 | 0.0 | 0.0 | 0.00 | 0.00 | 0.00 | 85 | 1013.0 |
| 20260902114311 | 58 | 164 | 0.0 | 0.0 | 0.00 | 0.00 | 0.00 | 85 | 1012.9 |
| 20260902113805 | 58 | 170 | 0.0 | 0.0 | 0.00 | 0.00 | 0.00 | 84 | 1013.0 |
| 20260902113301 | 58 | 143 | 0.0 | 0.0 | 0.00 | 0.00 | 0.00 | 84 | 1013.1 |
| 20260902112801 | 58 | 153 | 0.0 | 0.0 | 0.00 | 0.00 | 0.00 | 84 | 1013.1 |
| 20260902112257 | 59 | 176 | 0.0 | 0.0 | 0.00 | 0.00 | 0.00 | 83 | 1013.0 |
| 20260902111752 | 59 | 147 | 0.0 | 0.0 | 0.00 | 0.00 | 0.00 | 83 | 1013.2 |
| 20260902111248 | 59 | 141 | 0.0 | 0.0 | 0.00 | 0.00 | 0.00 | 83 | 1013.3 |
| 20260902110744 | 59 | 154 | 0.0 | 0.0 | 0.00 | 0.00 | 0.00 | 82 | 1013.1 |
| 20260902110240 | 59 | 144 | 0.0 | 0.0 | 0.00 | 0.00 | 0.00 | 82 | 1013.2 |
| 20260902105739 | 59 | 137 | 0.0 | 0.0 | 0.00 | 0.00 | 0.00 | 82 | 1013.3 |
| 20260902105235 | 59 | 188 | 0.0 | 0.0 | 0.00 | 0.00 | 0.00 | 82 | 1013.3 |
| 20260902104730 | 59 | 125 | 0.0 | 0.0 | 0.00 | 0.00 | 0.00 | 82 | 1013.4 |
| 20260902104226 | 59 | 166 | 0.0 | 0.0 | 0.00 | 0.00 | 0.00 | 82 | 1013.5 |
| 20260902103725 | 59 | 158 | 0.0 | 0.0 | 0.00 | 0.00 | 0.00 | 82 | 1013.6 |
| 20260902103225 | 59 | 139 | 0.0 | 0.0 | 0.00 | 0.00 | 0.00 | 82 | 1013.5 |
| 20260902102721 | 59 | 151 | 0.0 | 0.0 | 0.00 | 0.00 | 0.00 | 82 | 1013.5 |
| 20260902102218 | 59 | 170 | 0.0 | 0.0 | 0.00 | 0.00 | 0.00 | 82 | 1013.7 |
| 20260902101714 | 59 | 134 | 0.0 | 0.0 | 0.00 | 0.00 | 0.00 | 83 | 1013.6 |
| 20260902101208 | 59 | 151 | 0.0 | 0.0 | 0.00 | 0.00 | 0.00 | 82 | 1013.7 |
| 20260902100708 | 60 | 134 | 0.0 | 0.0 | 0.00 | 0.00 | 0.00 | 82 | 1013.6 |
| 20260902100203 | 60 | 141 | 0.0 | 0.0 | 0.00 | 0.00 | 0.00 | 82 | 1013.9 |
| 20260902095702 | 60 | 153 | 0.0 | 0.0 | 0.00 | 0.00 | 0.00 | 82 | 1013.7 |
| 20260902095156 | 60 | 143 | 0.0 | 0.0 | 0.00 | 0.00 | 0.00 | 82 | 1013.8 |
| 20260902094651 | 60 | 129 | 0.0 | 0.0 | 0.00 | 0.00 | 0.00 | 82 | 1013.7 |
| 20260902094148 | 60 | 139 | 0.0 | 5.0 | 0.00 | 0.00 | 0.00 | 82 | 1013.5 |
| 20260902093646 | 60 | 141 | 0.0 | 0.0 | 0.00 | 0.00 | 0.00 | 81 | 1013.8 |
| 20260902093142 | 60 | 163 | 0.0 | 0.0 | 0.00 | 0.00 | 0.00 | 81 | 1013.6 |
| 20260902092637 | 60 | 177 | 0.0 | 0.0 | 0.00 | 0.00 | 0.00 | 81 | 1013.7 |
| 20260902092131 | 60 | 152 | 0.0 | 0.0 | 0.00 | 0.00 | 0.00 | 81 | 1013.8 |
| 20260902091626 | 60 | 185 | 0.0 | 0.0 | 0.00 | 0.00 | 0.00 | 80 | 1013.9 |
| 20260902091123 | 60 | 181 | 0.0 | 0.0 | 0.00 | 0.00 | 0.00 | 80 | 1013.9 |
| 20260902090619 | 60 | 181 | 0.0 | 0.0 | 0.00 | 0.00 | 0.00 | 80 | 1013.8 |
| 20260902090117 | 60 | 191 | 0.0 | 0.0 | 0.00 | 0.00 | 0.00 | 80 | 1013.7 |
| 20260902085612 | 60 | 176 | 0.0 | 0.0 | 0.00 | 0.00 | 0.00 | 80 | 1013.9 |
| 20260902085107 | 61 | 190 | 0.0 | 0.0 | 0.00 | 0.00 | 0.00 | 80 | 1014.1 |
| 20260902084603 | 61 | 174 | 0.0 | 0.0 | 0.00 | 0.00 | 0.00 | 80 | 1014.0 |
| 20260902084059 | 61 | 179 | 0.0 | 0.0 | 0.00 | 0.00 | 0.00 | 80 | 1014.2 |
| 20260902083554 | 61 | 193 | 0.0 | 0.0 | 0.00 | 0.00 | 0.00 | 80 | 1014.1 |
| 20260902083053 | 61 | 203 | 0.0 | 0.0 | 0.00 | 0.00 | 0.00 | 80 | 1014.3 |
| 20260902082549 | 61 | 197 | 0.0 | 0.0 | 0.00 | 0.00 | 0.00 | 80 | 1014.2 |
| 20260902082046 | 61 | 132 | 0.0 | 0.0 | 0.00 | 0.00 | 0.00 | 80 | 1014.2 |
| 20260902081542 | 61 | 152 | 0.0 | 0.0 | 0.00 | 0.00 | 0.00 | 80 | 1014.2 |
| 20260902081042 | 61 | 143 | 0.0 | 0.0 | 0.00 | 0.00 | 0.00 | 80 | 1014.5 |
| 20260902080537 | 61 | 161 | 0.0 | 0.0 | 0.00 | 0.00 | 0.00 | 79 | 1014.1 |
| 20260902080033 | 61 | 144 | 0.0 | 0.0 | 0.00 | 0.00 | 0.00 | 79 | 1014.2 |
| 20260902075533 | 61 | 140 | 0.0 | 0.0 | 0.00 | 0.00 | 0.00 | 79 | 1014.3 |
| 20260902075029 | 61 | 135 | 0.0 | 0.0 | 0.00 | 0.00 | 0.00 | 79 | 1014.4 |
| 20260902074525 | 61 | 152 | 0.0 | 0.0 | 0.00 | 0.00 | 0.00 | 79 | 1014.4 |
| 20260902074019 | 61 | 129 | 0.0 | 0.0 | 0.00 | 0.00 | 0.00 | 78 | 1014.5 |
| 20260902073515 | 61 | 148 | 0.0 | 0.0 | 0.00 | 0.00 | 0.00 | 78 | 1014.5 |
| 20260902073012 | 61 | 163 | 0.0 | 0.0 | 0.00 | 0.00 | 0.00 | 78 | 1014.5 |
| 20260902072507 | 62 | 136 | 0.0 | 0.0 | 0.00 | 0.00 | 0.00 | 78 | 1014.5 |
| 20260902072003 | 62 | 152 | 0.0 | 0.0 | 0.00 | 0.00 | 0.00 | 78 | 1014.4 |
| 20260902071502 | 62 | 154 | 0.0 | 3.0 | 0.00 | 0.00 | 0.00 | 78 | 1014.6 |
| 20260902070959 | 62 | 119 | 0.0 | 3.0 | 0.00 | 0.00 | 0.00 | 78 | 1014.6 |
| 20260902070454 | 62 | 182 | 0.0 | 0.0 | 0.00 | 0.00 | 0.00 | 78 | 1014.7 |
| 20260902065953 | 62 | 160 | 0.0 | 0.0 | 0.00 | 0.00 | 0.00 | 78 | 1014.5 |
| 20260902065448 | 62 | 168 | 0.0 | 0.0 | 0.00 | 0.00 | 0.00 | 78 | 1014.7 |
| 20260902064943 | 62 | 156 | 0.0 | 0.0 | 0.00 | 0.00 | 0.00 | 78 | 1014.7 |
| 20260902064439 | 62 | 140 | 2.0 | 3.0 | 0.00 | 0.00 | 0.00 | 78 | 1014.7 |
| 20260902063934 | 62 | 164 | 0.0 | 3.0 | 0.00 | 0.00 | 0.00 | 77 | 1014.7 |
| 20260902063434 | 62 | 138 | 0.0 | 0.0 | 0.00 | 0.00 | 0.00 | 77 | 1014.6 |
| 20260902062929 | 62 | 167 | 0.0 | 0.0 | 0.00 | 0.00 | 0.00 | 77 | 1014.6 |
| 20260902062428 | 62 | 155 | 0.0 | 0.0 | 0.00 | 0.00 | 0.00 | 77 | 1014.7 |
| 20260902061923 | 62 | 138 | 2.0 | 3.0 | 0.00 | 0.00 | 0.00 | 76 | 1014.7 |
| 20260902061418 | 63 | 159 | 0.0 | 0.0 | 0.00 | 0.00 | 0.00 | 75 | 1014.7 |
| 20260902060914 | 63 | 189 | 0.0 | 0.0 | 0.00 | 0.00 | 0.00 | 75 | 1014.9 |
| 20260902060410 | 63 | 124 | 0.0 | 0.0 | 0.00 | 0.00 | 0.00 | 74 | 1014.7 |
| 20260902055906 | 63 | 176 | 0.0 | 3.0 | 0.00 | 0.00 | 0.00 | 74 | 1014.9 |
| 20260902055402 | 62 | 203 | 0.0 | 0.0 | 0.00 | 0.00 | 0.00 | 75 | 1014.6 |
| 20260902054857 | 62 | 149 | 0.0 | 0.0 | 0.00 | 0.00 | 0.00 | 76 | 1014.8 |
| 20260902054352 | 63 | 152 | 0.0 | 0.0 | 0.00 | 0.00 | 0.00 | 75 | 1014.7 |
| 20260902053848 | 63 | 205 | 0.0 | 0.0 | 0.00 | 0.00 | 0.00 | 74 | 1014.8 |
| 20260902053343 | 63 | 177 | 0.0 | 0.0 | 0.00 | 0.00 | 0.00 | 74 | 1014.8 |
| 20260902052841 | 63 | 188 | 0.0 | 0.0 | 0.00 | 0.00 | 0.00 | 74 | 1014.8 |
| 20260902052337 | 63 | 234 | 0.0 | 0.0 | 0.00 | 0.00 | 0.00 | 74 | 1014.9 |
| 20260902051832 | 63 | 124 | 0.0 | 0.0 | 0.00 | 0.00 | 0.00 | 74 | 1014.8 |
| 20260902051331 | 63 | 157 | 0.0 | 0.0 | 0.00 | 0.00 | 0.00 | 74 | 1014.9 |
| 20260902050826 | 63 | 135 | 1.0 | 3.0 | 0.00 | 0.00 | 0.00 | 75 | 1015.0 |
| 20260902050325 | 63 | 137 | 0.0 | 3.0 | 0.00 | 0.00 | 0.00 | 75 | 1015.1 |
| 20260902045820 | 63 | 154 | 0.0 | 0.0 | 0.00 | 0.00 | 0.00 | 75 | 1015.1 |
| 20260902045316 | 63 | 154 | 0.0 | 3.0 | 0.00 | 0.00 | 0.00 | 75 | 1015.0 |
| 20260902044813 | 63 | 141 | 1.0 | 3.0 | 0.00 | 0.00 | 0.00 | 74 | 1015.0 |
| 20260902044308 | 63 | 164 | 0.0 | 0.0 | 0.00 | 0.00 | 0.00 | 74 | 1015.0 |
| 20260902043802 | 63 | 155 | 0.0 | 0.0 | 0.00 | 0.00 | 0.00 | 73 | 1015.1 |
| 20260902043258 | 64 | 160 | 0.0 | 0.0 | 0.00 | 0.00 | 0.00 | 73 | 1015.1 |
| 20260902042757 | 64 | 185 | 0.0 | 0.0 | 0.00 | 0.00 | 0.00 | 72 | 1015.0 |
| 20260902042252 | 64 | 160 | 0.0 | 0.0 | 0.00 | 0.00 | 0.00 | 72 | 1015.0 |
| 20260902041748 | 64 | 158 | 0.0 | 0.0 | 0.00 | 0.00 | 0.00 | 72 | 1014.9 |
| 20260902041247 | 64 | 217 | 0.0 | 3.0 | 0.00 | 0.00 | 0.00 | 73 | 1015.1 |
| 20260902040746 | 64 | 163 | 0.0 | 0.0 | 0.00 | 0.00 | 0.00 | 73 | 1015.2 |
| 20260902040242 | 64 | 178 | 0.0 | 0.0 | 0.00 | 0.00 | 0.00 | 73 | 1015.2 |
| 20260902035740 | 64 | 148 | 0.0 | 5.0 | 0.00 | 0.00 | 0.00 | 73 | 1015.1 |
| 20260902035236 | 64 | 195 | 0.0 | 0.0 | 0.00 | 0.00 | 0.00 | 73 | 1015.0 |
| 20260902034735 | 64 | 203 | 0.0 | 3.0 | 0.00 | 0.00 | 0.00 | 73 | 1015.1 |
| 20260902034230 | 64 | 172 | 0.0 | 0.0 | 0.00 | 0.00 | 0.00 | 73 | 1015.2 |
| 20260902033728 | 64 | 151 | 0.0 | 0.0 | 0.00 | 0.00 | 0.00 | 73 | 1015.2 |
| 20260902033224 | 64 | 210 | 0.0 | 0.0 | 0.00 | 0.00 | 0.00 | 73 | 1015.0 |
| 20260902032722 | 64 | 180 | 0.0 | 5.0 | 0.00 | 0.00 | 0.00 | 73 | 1015.2 |
| 20260902032218 | 64 | 234 | 0.0 | 0.0 | 0.00 | 0.00 | 0.00 | 73 | 1015.3 |
| 20260902031717 | 64 | 166 | 0.0 | 0.0 | 0.00 | 0.00 | 0.00 | 73 | 1015.2 |
| 20260902031213 | 64 | 142 | 0.0 | 0.0 | 0.00 | 0.00 | 0.00 | 74 | 1015.1 |
| 20260902030708 | 64 | 191 | 0.0 | 0.0 | 0.00 | 0.00 | 0.00 | 73 | 1015.0 |
| 20260902030207 | 64 | 137 | 0.0 | 3.0 | 0.00 | 0.00 | 0.00 | 73 | 1015.1 |
| 20260902025702 | 64 | 153 | 0.0 | 0.0 | 0.00 | 0.00 | 0.00 | 73 | 1014.9 |
| 20260902025157 | 64 | 211 | 0.0 | 3.0 | 0.00 | 0.00 | 0.00 | 72 | 1014.8 |
| 20260902024652 | 64 | 212 | 0.0 | 0.0 | 0.00 | 0.00 | 0.00 | 71 | 1014.9 |
| 20260902024147 | 64 | 169 | 0.0 | 5.0 | 0.00 | 0.00 | 0.00 | 71 | 1014.7 |
| 20260902023643 | 65 | 225 | 0.0 | 7.0 | 0.00 | 0.00 | 0.00 | 70 | 1014.7 |
| 20260902023138 | 65 | 269 | 1.0 | 7.0 | 0.00 | 0.00 | 0.00 | 68 | 1014.7 |
| 20260902022637 | 66 | 187 | 0.0 | 0.0 | 0.00 | 0.00 | 0.00 | 67 | 1014.8 |
| 20260902022133 | 66 | 199 | 0.0 | 5.0 | 0.00 | 0.00 | 0.00 | 66 | 1014.7 |
| 20260902021628 | 67 | 207 | 0.0 | 3.0 | 0.00 | 0.00 | 0.00 | 64 | 1014.7 |
| 20260902021123 | 67 | 181 | 0.0 | 3.0 | 0.00 | 0.00 | 0.00 | 64 | 1014.6 |
| 20260902020619 | 67 | 112 | 4.0 | 7.0 | 0.00 | 0.00 | 0.00 | 63 | 1014.7 |
| 20260902020114 | 67 | 192 | 0.0 | 3.0 | 0.00 | 0.00 | 0.00 | 64 | 1014.6 |
| 20260902015610 | 67 | 222 | 0.0 | 3.0 | 0.00 | 0.00 | 0.00 | 64 | 1014.7 |
| 20260902015106 | 67 | 139 | 4.0 | 7.0 | 0.00 | 0.00 | 0.00 | 63 | 1014.6 |
| 20260902014602 | 67 | 216 | 0.0 | 0.0 | 0.00 | 0.00 | 0.00 | 63 | 1014.7 |
| 20260902014057 | 67 | 232 | 0.0 | 3.0 | 0.00 | 0.00 | 0.00 | 64 | 1014.7 |
| 20260902013556 | 67 | 176 | 0.0 | 3.0 | 0.00 | 0.00 | 0.00 | 64 | 1014.8 |
| 20260902013052 | 67 | 184 | 0.0 | 0.0 | 0.00 | 0.00 | 0.00 | 64 | 1014.5 |
| 20260902012547 | 67 | 104 | 0.0 | 5.0 | 0.00 | 0.00 | 0.00 | 64 | 1014.6 |
| 20260902012043 | 67 | 160 | 0.0 | 0.0 | 0.00 | 0.00 | 0.00 | 65 | 1014.6 |
| 20260902011538 | 67 | 186 | 0.0 | 0.0 | 0.00 | 0.00 | 0.00 | 65 | 1014.6 |
| 20260902011037 | 67 | 208 | 0.0 | 0.0 | 0.00 | 0.00 | 0.00 | 66 | 1014.7 |
| 20260902010537 | 67 | 211 | 1.0 | 7.0 | 0.00 | 0.00 | 0.00 | 65 | 1014.6 |
| 20260902010033 | 67 | 208 | 0.0 | 0.0 | 0.00 | 0.00 | 0.00 | 65 | 1014.6 |
| 20260902005531 | 67 | 219 | 0.0 | 3.0 | 0.00 | 0.00 | 0.00 | 65 | 1014.6 |
| 20260902005027 | 67 | 275 | 3.0 | 5.0 | 0.00 | 0.00 | 0.00 | 65 | 1014.5 |
| 20260902004526 | 68 | 221 | 0.0 | 0.0 | 0.00 | 0.00 | 0.00 | 64 | 1014.7 |
| 20260902004022 | 68 | 208 | 0.0 | 0.0 | 0.00 | 0.00 | 0.00 | 64 | 1014.7 |
| 20260902003517 | 68 | 193 | 0.0 | 0.0 | 0.00 | 0.00 | 0.00 | 64 | 1014.4 |
| 20260902003012 | 67 | 257 | 0.0 | 5.0 | 0.00 | 0.00 | 0.00 | 64 | 1014.6 |
| 20260902002508 | 68 | 221 | 0.0 | 0.0 | 0.00 | 0.00 | 0.00 | 63 | 1014.7 |
| 20260902002002 | 68 | 283 | 3.0 | 5.0 | 0.00 | 0.00 | 0.00 | 63 | 1014.6 |